Location: Atherton
(17.2661°S, 145.4859°E)
Time: 23:15:20
(UTC+10:00)

Vanguard 1 - Pass Details

Date: 29 June 2025
Orbit: 649 x 3822 km, 34.2° (Epoch: 17 July)

Event Time Altitude Azimuth Distance (km) Brightness Sun altitude
Rises 00:32:44 0° 235° (SW) 4,358 - -83.5°
Reaches altitude 10° 00:36:25 10° 228° (SW) 2,957 - -83.1°
Maximum altitude 00:42:34 41° 158° (SSE) 1,138 - -82.2°
Drops below altitude 10° 00:46:56 10° 86° (E) 2,101 - -81.6°
Sets 00:49:08 0° 78° (ENE) 2,957 - -81.2°
